| time (UTC) | temp F | wind direction | speed MPH | gust MPH | rain 1hr in | rain 24hr in | rain mn in | humidity % | barometer mb |
| 20260831103107 | 73 | 246 | 3.0 | 16.0 | 0.00 | 0.42 | 0.00 | 52 | 1015.3 |
| 20260831102613 | 73 | 231 | 1.0 | 12.0 | 0.00 | 0.42 | 0.00 | 54 | 1015.3 |
| 20260831102116 | 74 | 241 | 2.0 | 8.0 | 0.00 | 0.42 | 0.00 | 54 | 1015.3 |
| 20260831101607 | 73 | 292 | 3.0 | 10.0 | 0.00 | 0.42 | 0.00 | 53 | 1015.3 |
| 20260831101107 | 73 | 248 | 3.0 | 11.0 | 0.00 | 0.42 | 0.00 | 53 | 1015.3 |
| 20260831100613 | 72 | 242 | 2.0 | 10.0 | 0.00 | 0.42 | 0.00 | 58 | 1015.3 |
| 20260831100107 | 71 | 268 | 4.0 | 10.0 | 0.00 | 0.42 | 0.00 | 57 | 1015.3 |
| 20260831095607 | 72 | 272 | 3.0 | 8.0 | 0.00 | 0.42 | 0.00 | 57 | 1015.3 |
| 20260831095110 | 71 | 246 | 1.0 | 5.0 | 0.00 | 0.42 | 0.00 | 59 | 1015.3 |
| 20260831094610 | 69 | 239 | 2.0 | 10.0 | 0.00 | 0.42 | 0.00 | 61 | 1015.3 |
| 20260831094110 | 70 | 254 | 3.0 | 8.0 | 0.00 | 0.42 | 0.00 | 60 | 1015.6 |
| 20260831093610 | 70 | 206 | 3.0 | 10.0 | 0.00 | 0.42 | 0.00 | 58 | 1015.6 |
| 20260831093107 | 71 | 242 | 2.0 | 11.0 | 0.00 | 0.42 | 0.00 | 58 | 1015.6 |
| 20260831092607 | 71 | 257 | 4.0 | 9.0 | 0.00 | 0.42 | 0.00 | 57 | 1015.6 |
| 20260831092107 | 71 | 246 | 2.0 | 11.0 | 0.00 | 0.42 | 0.00 | 59 | 1015.6 |
| 20260831091607 | 71 | 207 | 2.0 | 10.0 | 0.00 | 0.42 | 0.00 | 58 | 1015.6 |
| 20260831091107 | 71 | 269 | 4.0 | 10.0 | 0.00 | 0.42 | 0.00 | 57 | 1015.6 |
| 20260831090607 | 71 | 266 | 3.0 | 9.0 | 0.00 | 0.42 | 0.00 | 58 | 1015.6 |
| 20260831090107 | 70 | 274 | 3.0 | 9.0 | 0.00 | 0.42 | 0.00 | 60 | 1015.6 |
| 20260831085610 | 70 | 231 | 4.0 | 9.0 | 0.00 | 0.42 | 0.00 | 60 | 1015.3 |
| 20260831085107 | 70 | 249 | 3.0 | 13.0 | 0.00 | 0.42 | 0.00 | 60 | 1015.6 |
| 20260831084607 | 70 | 233 | 3.0 | 16.0 | 0.00 | 0.42 | 0.00 | 60 | 1015.3 |
| 20260831084107 | 69 | 212 | 6.0 | 16.0 | 0.00 | 0.42 | 0.00 | 62 | 1015.3 |
| 20260831083610 | 69 | 251 | 3.0 | 10.0 | 0.00 | 0.42 | 0.00 | 62 | 1015.3 |
| 20260831083107 | 69 | 265 | 3.0 | 13.0 | 0.00 | 0.42 | 0.00 | 62 | 1015.3 |
| 20260831082610 | 68 | 254 | 5.0 | 13.0 | 0.00 | 0.42 | 0.00 | 63 | 1015.3 |
| 20260831082113 | 68 | 237 | 3.0 | 8.0 | 0.00 | 0.42 | 0.00 | 64 | 1015.3 |
| 20260831081608 | 68 | 246 | 4.0 | 11.0 | 0.00 | 0.42 | 0.00 | 65 | 1015.3 |
| 20260831081113 | 68 | 241 | 3.0 | 8.0 | 0.00 | 0.42 | 0.00 | 65 | 1015.3 |
| 20260831080610 | 68 | 246 | 3.0 | 8.0 | 0.00 | 0.42 | 0.00 | 66 | 1015.3 |
| 20260831080113 | 68 | 232 | 2.0 | 8.0 | 0.00 | 0.42 | 0.00 | 67 | 1015.3 |
| 20260831075613 | 68 | 298 | 2.0 | 12.0 | 0.00 | 0.42 | 0.00 | 70 | 1015.3 |
| 20260831075107 | 67 | 259 | 5.0 | 13.0 | 0.00 | 0.42 | 0.00 | 69 | 1015.0 |
| 20260831074610 | 67 | 237 | 4.0 | 10.0 | 0.00 | 0.42 | 0.00 | 71 | 1015.0 |
| 20260831074107 | 67 | 236 | 4.0 | 9.0 | 0.00 | 0.42 | 0.00 | 71 | 1015.0 |
| 20260831073607 | 67 | 163 | 1.0 | 9.0 | 0.00 | 0.42 | 0.00 | 75 | 1015.0 |
| 20260831073113 | 66 | 247 | 4.0 | 9.0 | 0.00 | 0.42 | 0.00 | 75 | 1015.0 |
| 20260831072610 | 65 | 222 | 1.0 | 5.0 | 0.00 | 0.42 | 0.00 | 79 | 1015.0 |
| 20260831072107 | 65 | 238 | 1.0 | 8.0 | 0.00 | 0.42 | 0.00 | 81 | 1015.0 |
| 20260831071610 | 64 | 248 | 1.0 | 8.0 | 0.00 | 0.42 | 0.00 | 82 | 1015.0 |
| 20260831071110 | 64 | 233 | 3.0 | 8.0 | 0.00 | 0.42 | 0.00 | 82 | 1015.0 |
| 20260831070607 | 64 | 241 | 3.0 | 7.0 | 0.00 | 0.42 | 0.00 | 83 | 1014.6 |
| 20260831070110 | 64 | 252 | 2.0 | 10.0 | 0.00 | 0.42 | 0.00 | 83 | 1014.6 |
| 20260831065607 | 64 | 238 | 3.0 | 10.0 | 0.00 | 0.42 | 0.00 | 84 | 1014.6 |
| 20260831065110 | 63 | 222 | 2.0 | 7.0 | 0.00 | 0.42 | 0.00 | 85 | 1014.2 |
| 20260831064616 | 63 | 242 | 3.0 | 12.0 | 0.00 | 0.42 | 0.00 | 85 | 1014.2 |
| 20260831064110 | 63 | 276 | 1.0 | 9.0 | 0.00 | 0.42 | 0.00 | 87 | 1014.2 |
| 20260831063607 | 63 | 215 | 2.0 | 7.0 | 0.00 | 0.42 | 0.00 | 87 | 1014.2 |
| 20260831063113 | 63 | 259 | 2.0 | 7.0 | 0.00 | 0.42 | 0.00 | 88 | 1014.2 |
| 20260831062610 | 63 | 260 | 2.0 | 5.0 | 0.00 | 0.42 | 0.00 | 88 | 1014.2 |
| 20260831062108 | 62 | 247 | 2.0 | 5.0 | 0.00 | 0.42 | 0.00 | 89 | 1014.2 |
| 20260831061610 | 62 | 271 | 1.0 | 4.0 | 0.00 | 0.42 | 0.00 | 89 | 1014.2 |
| 20260831061107 | 62 | 231 | 1.0 | 5.0 | 0.00 | 0.42 | 0.00 | 89 | 1013.9 |
| 20260831060613 | 62 | 257 | 2.0 | 6.0 | 0.00 | 0.42 | 0.00 | 89 | 1013.9 |
| 20260831060107 | 62 | 250 | 1.0 | 3.0 | 0.00 | 0.42 | 0.00 | 89 | 1013.9 |
| 20260831055607 | 62 | 293 | 0.0 | 1.0 | 0.00 | 0.42 | 0.00 | 89 | 1013.9 |
| 20260831055113 | 62 | 222 | 0.0 | 4.0 | 0.00 | 0.42 | 0.00 | 89 | 1013.9 |
| 20260831054613 | 62 | 174 | 1.0 | 2.0 | 0.00 | 0.42 | 0.00 | 89 | 1013.5 |
| 20260831054107 | 62 | 202 | 1.0 | 3.0 | 0.00 | 0.42 | 0.00 | 89 | 1013.5 |
| 20260831053613 | 61 | 186 | 1.0 | 4.0 | 0.00 | 0.42 | 0.00 | 89 | 1013.5 |
| 20260831053113 | 61 | 203 | 2.0 | 5.0 | 0.00 | 0.42 | 0.00 | 89 | 1013.5 |
| 20260831052607 | 61 | 197 | 2.0 | 5.0 | 0.00 | 0.42 | 0.00 | 90 | 1013.5 |
| 20260831052110 | 61 | 226 | 0.0 | 3.0 | 0.00 | 0.42 | 0.00 | 90 | 1013.5 |
| 20260831051607 | 61 | 181 | 1.0 | 4.0 | 0.00 | 0.42 | 0.00 | 90 | 1013.5 |
| 20260831051107 | 61 | 173 | 1.0 | 5.0 | 0.00 | 0.42 | 0.00 | 90 | 1013.2 |
| 20260831050607 | 61 | 202 | 1.0 | 5.0 | 0.00 | 0.42 | 0.00 | 90 | 1013.5 |
| 20260831050108 | 61 | 151 | 1.0 | 5.0 | 0.00 | 0.42 | 0.00 | 90 | 1013.2 |
| 20260831045607 | 61 | 166 | 2.0 | 4.0 | 0.00 | 0.42 | 0.00 | 90 | 1013.2 |
| 20260831045107 | 61 | 169 | 1.0 | 3.0 | 0.01 | 0.42 | 0.00 | 90 | 1013.2 |
| 20260831044608 | 61 | 175 | 1.0 | 4.0 | 0.03 | 0.42 | 0.00 | 90 | 1013.2 |
| 20260831044110 | 61 | 163 | 1.0 | 3.0 | 0.05 | 0.42 | 0.00 | 90 | 1013.2 |
| 20260831043607 | 61 | 125 | 2.0 | 3.0 | 0.07 | 0.42 | 0.00 | 90 | 1013.2 |
| 20260831043113 | 61 | 130 | 1.0 | 4.0 | 0.08 | 0.42 | 0.00 | 90 | 1013.2 |
| 20260831042607 | 61 | 165 | 2.0 | 3.0 | 0.14 | 0.42 | 0.00 | 90 | 1013.2 |
| 20260831042107 | 61 | 127 | 1.0 | 5.0 | 0.27 | 0.42 | 0.00 | 90 | 1012.9 |
| 20260831041607 | 61 | 157 | 1.0 | 2.0 | 0.31 | 0.42 | 0.00 | 90 | 1013.2 |
| 20260831041110 | 61 | 145 | 1.0 | 3.0 | 0.34 | 0.42 | 0.00 | 90 | 1013.2 |
| 20260831040607 | 61 | 75 | 2.0 | 3.0 | 0.34 | 0.42 | 0.00 | 90 | 1013.2 |
| 20260831040107 | 61 | 74 | 2.0 | 5.0 | 0.34 | 0.42 | 0.00 | 90 | 1013.2 |
| 20260831035610 | 61 | 103 | 1.0 | 3.0 | 0.34 | 0.42 | 0.00 | 90 | 1013.5 |
| 20260831035107 | 61 | 122 | 0.0 | 5.0 | 0.38 | 0.41 | 0.00 | 90 | 1013.5 |
| 20260831034613 | 61 | 96 | 1.0 | 39.0 | 0.38 | 0.39 | 0.00 | 89 | 1013.5 |
| 20260831034113 | 61 | 325 | 3.0 | 54.0 | 0.36 | 0.36 | 0.00 | 89 | 1013.9 |
| 20260831033607 | 61 | 233 | 2.0 | 6.0 | 0.35 | 0.35 | 0.00 | 89 | 1013.9 |
| 20260831033113 | 61 | 248 | 2.0 | 7.0 | 0.34 | 0.34 | 0.00 | 88 | 1013.9 |
| 20260831032610 | 61 | 241 | 2.0 | 12.0 | 0.27 | 0.27 | 0.00 | 87 | 1014.6 |
| 20260831032107 | 61 | 248 | 3.0 | 10.0 | 0.15 | 0.15 | 0.00 | 86 | 1014.6 |
| 20260831031607 | 62 | 193 | 3.0 | 7.0 | 0.10 | 0.10 | 0.00 | 84 | 1013.2 |
| 20260831031110 | 61 | 172 | 2.0 | 6.0 | 0.08 | 0.08 | 0.00 | 84 | 1012.1 |
| 20260831030613 | 61 | 105 | 1.0 | 4.0 | 0.08 | 0.08 | 0.00 | 85 | 1011.8 |
| 20260831030110 | 61 | 282 | 1.0 | 4.0 | 0.08 | 0.08 | 0.00 | 84 | 1012.1 |
| 20260831025613 | 62 | 328 | 2.0 | 4.0 | 0.07 | 0.07 | 0.00 | 83 | 1012.1 |
| 20260831025110 | 62 | 320 | 1.0 | 3.0 | 0.03 | 0.03 | 0.00 | 80 | 1012.1 |
| 20260831024607 | 62 | 195 | 1.0 | 2.0 | 0.00 | 0.00 | 0.00 | 77 | 1012.1 |
| 20260831024110 | 62 | 195 | 1.0 | 3.0 | 0.00 | 0.00 | 0.00 | 77 | 1012.1 |
| 20260831023613 | 62 | 162 | 2.0 | 3.0 | 0.00 | 0.00 | 0.00 | 78 | 1012.1 |
| 20260831023113 | 62 | 158 | 1.0 | 3.0 | 0.00 | 0.00 | 0.00 | 78 | 1012.1 |
| 20260831022607 | 62 | 171 | 1.0 | 3.0 | 0.00 | 0.00 | 0.00 | 78 | 1012.1 |
| 20260831022110 | 62 | 172 | 1.0 | 2.0 | 0.00 | 0.00 | 0.00 | 78 | 1012.5 |
| 20260831021613 | 62 | 256 | 0.0 | 2.0 | 0.00 | 0.00 | 0.00 | 78 | 1012.5 |
| 20260831021107 | 62 | 329 | 1.0 | 2.0 | 0.00 | 0.00 | 0.00 | 78 | 1012.5 |
| 20260831020610 | 61 | 171 | 0.0 | 1.0 | 0.00 | 0.00 | 0.00 | 79 | 1012.9 |
| 20260831020108 | 61 | 73 | 0.0 | 2.0 | 0.00 | 0.00 | 0.00 | 79 | 1012.5 |
| 20260831015607 | 61 | 82 | 0.0 | 1.0 | 0.00 | 0.00 | 0.00 | 79 | 1012.5 |
| 20260831015110 | 61 | 303 | 0.0 | 1.0 | 0.00 | 0.00 | 0.00 | 79 | 1012.9 |
| 20260831014607 | 61 | 243 | 1.0 | 1.0 | 0.00 | 0.00 | 0.00 | 80 | 1012.9 |
| 20260831014110 | 61 | 97 | 0.0 | 3.0 | 0.00 | 0.00 | 0.00 | 80 | 1012.9 |
| 20260831013607 | 61 | 193 | 1.0 | 3.0 | 0.00 | 0.00 | 0.00 | 80 | 1013.2 |
| 20260831013110 | 61 | 356 | 1.0 | 3.0 | 0.00 | 0.00 | 0.00 | 80 | 1012.9 |
| 20260831012607 | 60 | 344 | 1.0 | 2.0 | 0.00 | 0.00 | 0.00 | 81 | 1012.9 |
| 20260831012113 | 60 | 81 | 1.0 | 3.0 | 0.00 | 0.00 | 0.00 | 80 | 1013.2 |
| 20260831011607 | 60 | 164 | 1.0 | 4.0 | 0.00 | 0.00 | 0.00 | 80 | 1013.2 |
| 20260831011107 | 60 | 104 | 2.0 | 4.0 | 0.00 | 0.00 | 0.00 | 80 | 1013.2 |
| 20260831010607 | 60 | 93 | 2.0 | 3.0 | 0.00 | 0.00 | 0.00 | 80 | 1013.2 |
| 20260831010110 | 60 | 73 | 1.0 | 1.0 | 0.00 | 0.00 | 0.00 | 80 | 1013.2 |
| 20260831005607 | 60 | 303 | 0.0 | 2.0 | 0.00 | 0.00 | 0.00 | 81 | 1013.2 |
| 20260831005110 | 60 | 75 | 0.0 | 2.0 | 0.00 | 0.00 | 0.00 | 81 | 1013.5 |
| 20260831004610 | 60 | 126 | 0.0 | 2.0 | 0.00 | 0.00 | 0.00 | 81 | 1013.5 |
| 20260831004107 | 60 | 340 | 0.0 | 1.0 | 0.00 | 0.00 | 0.00 | 82 | 1013.5 |
| 20260831003607 | 60 | 87 | 0.0 | 2.0 | 0.00 | 0.00 | 0.00 | 82 | 1013.5 |
| 20260831003107 | 60 | 55 | 0.0 | 1.0 | 0.00 | 0.00 | 0.00 | 81 | 1013.5 |
| 20260831002607 | 60 | 243 | 0.0 | 1.0 | 0.00 | 0.00 | 0.00 | 81 | 1013.5 |
| 20260831002107 | 60 | 108 | 0.0 | 3.0 | 0.00 | 0.00 | 0.00 | 81 | 1013.5 |
| 20260831001607 | 60 | 72 | 0.0 | 2.0 | 0.00 | 0.00 | 0.00 | 81 | 1013.9 |
| 20260831001110 | 60 | 94 | 1.0 | 3.0 | 0.00 | 0.00 | 0.00 | 81 | 1013.9 |
| 20260831000610 | 60 | 107 | 1.0 | 2.0 | 0.00 | 0.00 | 0.00 | 81 | 1013.9 |
| 20260831000113 | 60 | 99 | 1.0 | 3.0 | 0.00 | 0.00 | 0.00 | 81 | 1013.9 |
| 20260830235610 | 61 | 76 | 1.0 | 3.0 | 0.00 | 0.00 | 0.00 | 81 | 1013.9 |
| 20260830235107 | 61 | 54 | 1.0 | 4.0 | 0.00 | 0.00 | 0.00 | 80 | 1013.9 |
| 20260830234607 | 61 | 84 | 1.0 | 3.0 | 0.00 | 0.00 | 0.00 | 80 | 1013.9 |
| 20260830234113 | 61 | 187 | 0.0 | 4.0 | 0.00 | 0.00 | 0.00 | 79 | 1013.9 |
| 20260830233607 | 61 | 100 | 1.0 | 4.0 | 0.00 | 0.00 | 0.00 | 79 | 1013.9 |
| 20260830233107 | 61 | 130 | 0.0 | 2.0 | 0.00 | 0.00 | 0.00 | 79 | 1014.2 |
| 20260830232607 | 61 | 75 | 1.0 | 2.0 | 0.00 | 0.00 | 0.00 | 79 | 1014.2 |
| 20260830232107 | 61 | 74 | 1.0 | 3.0 | 0.00 | 0.00 | 0.00 | 79 | 1014.2 |
| 20260830231610 | 61 | 84 | 2.0 | 3.0 | 0.00 | 0.00 | 0.00 | 79 | 1014.2 |
| 20260830231107 | 62 | 94 | 2.0 | 3.0 | 0.00 | 0.00 | 0.00 | 79 | 1014.2 |
| 20260830230610 | 62 | 100 | 0.0 | 4.0 | 0.00 | 0.00 | 0.00 | 79 | 1014.2 |
| 20260830230113 | 62 | 79 | 2.0 | 4.0 | 0.00 | 0.00 | 0.00 | 79 | 1014.2 |
| 20260830225610 | 62 | 86 | 1.0 | 3.0 | 0.00 | 0.00 | 0.00 | 78 | 1014.2 |
| 20260830225110 | 62 | 76 | 1.0 | 3.0 | 0.00 | 0.00 | 0.00 | 78 | 1014.6 |
| 20260830224613 | 62 | 67 | 1.0 | 2.0 | 0.00 | 0.00 | 0.00 | 78 | 1014.6 |
| 20260830224107 | 62 | 95 | 1.0 | 2.0 | 0.00 | 0.00 | 0.00 | 78 | 1014.6 |
| 20260830223607 | 62 | 99 | 1.0 | 2.0 | 0.00 | 0.00 | 0.00 | 77 | 1014.6 |
| 20260830223107 | 63 | 159 | 0.0 | 2.0 | 0.00 | 0.00 | 0.00 | 77 | 1014.6 |
| 20260830222610 | 63 | 130 | 0.0 | 2.0 | 0.00 | 0.00 | 0.00 | 76 | 1014.6 |
| 20260830222113 | 63 | 237 | 0.0 | 1.0 | 0.00 | 0.00 | 0.00 | 76 | 1014.6 |
| 20260830221607 | 63 | 196 | 0.0 | 2.0 | 0.00 | 0.00 | 0.00 | 76 | 1014.6 |
| 20260830221110 | 63 | 153 | 0.0 | 2.0 | 0.00 | 0.00 | 0.00 | 75 | 1014.6 |
| 20260830220607 | 63 | 72 | 1.0 | 2.0 | 0.00 | 0.00 | 0.00 | 75 | 1014.2 |
| 20260830220107 | 64 | 123 | 1.0 | 2.0 | 0.00 | 0.00 | 0.00 | 74 | 1014.2 |
| 20260830215607 | 64 | 63 | 0.0 | 2.0 | 0.00 | 0.00 | 0.00 | 74 | 1014.2 |
| 20260830215107 | 64 | 139 | 0.0 | 2.0 | 0.00 | 0.00 | 0.00 | 74 | 1014.2 |
| 20260830214610 | 64 | 74 | 1.0 | 2.0 | 0.00 | 0.00 | 0.00 | 73 | 1014.2 |
| 20260830214113 | 64 | 120 | 1.0 | 2.0 | 0.00 | 0.00 | 0.00 | 73 | 1014.2 |
| 20260830213610 | 64 | 94 | 0.0 | 2.0 | 0.00 | 0.00 | 0.00 | 73 | 1014.2 |
| 20260830213110 | 64 | 61 | 0.0 | 2.0 | 0.00 | 0.00 | 0.00 | 72 | 1014.2 |
| 20260830212610 | 65 | 72 | 1.0 | 3.0 | 0.00 | 0.00 | 0.00 | 72 | 1014.2 |
| 20260830212110 | 65 | 81 | 1.0 | 3.0 | 0.00 | 0.00 | 0.00 | 71 | 1014.6 |
| 20260830211607 | 65 | 96 | 1.0 | 3.0 | 0.00 | 0.00 | 0.00 | 71 | 1014.6 |
| 20260830211107 | 65 | 147 | 0.0 | 2.0 | 0.00 | 0.00 | 0.00 | 70 | 1014.6 |
| 20260830210607 | 65 | 137 | 0.0 | 2.0 | 0.00 | 0.00 | 0.00 | 70 | 1014.6 |
| 20260830210107 | 65 | 207 | 0.0 | 2.0 | 0.00 | 0.00 | 0.00 | 69 | 1014.6 |
| 20260830205610 | 66 | 194 | 0.0 | 1.0 | 0.00 | 0.00 | 0.00 | 69 | 1014.6 |
| 20260830205107 | 66 | 70 | 0.0 | 2.0 | 0.00 | 0.00 | 0.00 | 69 | 1014.2 |
| 20260830204610 | 66 | 99 | 0.0 | 3.0 | 0.00 | 0.00 | 0.00 | 68 | 1014.2 |
| 20260830204107 | 66 | 87 | 1.0 | 2.0 | 0.00 | 0.00 | 0.00 | 67 | 1014.2 |
| 20260830203610 | 67 | 115 | 1.0 | 1.0 | 0.00 | 0.00 | 0.00 | 66 | 1014.2 |
| 20260830203107 | 67 | 110 | 1.0 | 1.0 | 0.00 | 0.00 | 0.00 | 66 | 1014.2 |
| 20260830202610 | 67 | 32 | 0.0 | 2.0 | 0.00 | 0.00 | 0.00 | 65 | 1014.2 |
| 20260830202107 | 67 | 139 | 1.0 | 2.0 | 0.00 | 0.00 | 0.00 | 65 | 1014.2 |
| 20260830201607 | 67 | 134 | 1.0 | 3.0 | 0.00 | 0.00 | 0.00 | 64 | 1014.2 |
| 20260830201107 | 68 | 168 | 1.0 | 3.0 | 0.00 | 0.00 | 0.00 | 64 | 1014.6 |
| 20260830200613 | 68 | 158 | 1.0 | 3.0 | 0.00 | 0.00 | 0.00 | 63 | 1014.6 |
| 20260830200110 | 68 | 162 | 0.0 | 2.0 | 0.00 | 0.00 | 0.00 | 62 | 1014.6 |
| 20260830195610 | 68 | 160 | 1.0 | 2.0 | 0.00 | 0.00 | 0.00 | 62 | 1014.6 |
| 20260830195116 | 68 | 208 | 0.0 | 1.0 | 0.00 | 0.00 | 0.00 | 62 | 1014.6 |
| 20260830194613 | 69 | 174 | 0.0 | 1.0 | 0.00 | 0.00 | 0.00 | 61 | 1014.6 |
| 20260830194113 | 69 | 227 | 0.0 | 1.0 | 0.00 | 0.00 | 0.00 | 60 | 1014.6 |
| 20260830193607 | 69 | 216 | 0.0 | 2.0 | 0.00 | 0.00 | 0.00 | 60 | 1014.6 |
| 20260830193107 | 69 | 220 | 0.0 | 3.0 | 0.00 | 0.00 | 0.00 | 59 | 1014.6 |
| 20260830192607 | 69 | 198 | 1.0 | 2.0 | 0.00 | 0.00 | 0.00 | 59 | 1014.6 |
| 20260830192113 | 70 | 199 | 0.0 | 1.0 | 0.00 | 0.00 | 0.00 | 58 | 1014.6 |
| 20260830191616 | 70 | 195 | 0.0 | 1.0 | 0.00 | 0.00 | 0.00 | 57 | 1014.6 |
| 20260830191107 | 71 | 196 | 0.0 | 2.0 | 0.00 | 0.00 | 0.00 | 56 | 1014.6 |
| 20260830190607 | 71 | 253 | 1.0 | 2.0 | 0.00 | 0.00 | 0.00 | 56 | 1014.6 |
| 20260830190110 | 71 | 202 | 0.0 | 1.0 | 0.00 | 0.00 | 0.00 | 55 | 1014.6 |
| 20260830185610 | 72 | 307 | 0.0 | 1.0 | 0.00 | 0.00 | 0.00 | 54 | 1014.6 |
| 20260830185107 | 72 | 214 | 0.0 | 3.0 | 0.00 | 0.00 | 0.00 | 53 | 1014.2 |
| 20260830184608 | 72 | 189 | 1.0 | 3.0 | 0.00 | 0.00 | 0.00 | 52 | 1014.2 |
| 20260830184107 | 72 | 204 | 1.0 | 2.0 | 0.00 | 0.00 | 0.00 | 52 | 1014.2 |
| 20260830183607 | 73 | 225 | 0.0 | 1.0 | 0.00 | 0.00 | 0.00 | 52 | 1014.2 |
| 20260830183107 | 73 | 279 | 0.0 | 2.0 | 0.00 | 0.00 | 0.00 | 51 | 1014.2 |
| 20260830182607 | 73 | 292 | 0.0 | 1.0 | 0.00 | 0.00 | 0.00 | 51 | 1014.2 |
| 20260830182110 | 73 | 209 | 0.0 | 2.0 | 0.00 | 0.00 | 0.00 | 50 | 1014.2 |
| 20260830181607 | 73 | 268 | 0.0 | 1.0 | 0.00 | 0.00 | 0.00 | 49 | 1013.9 |
| 20260830181110 | 74 | 198 | 0.0 | 1.0 | 0.00 | 0.00 | 0.00 | 49 | 1013.9 |
| 20260830180613 | 74 | 223 | 0.0 | 1.0 | 0.00 | 0.00 | 0.00 | 49 | 1013.9 |
| 20260830180107 | 74 | 301 | 0.0 | 3.0 | 0.00 | 0.00 | 0.00 | 48 | 1013.9 |
| 20260830175616 | 74 | 251 | 0.0 | 3.0 | 0.00 | 0.00 | 0.00 | 47 | 1013.9 |
| 20260830175107 | 75 | 227 | 1.0 | 5.0 | 0.00 | 0.00 | 0.00 | 47 | 1013.9 |
| 20260830174610 | 75 | 260 | 2.0 | 5.0 | 0.00 | 0.00 | 0.00 | 46 | 1013.9 |
| 20260830174107 | 75 | 301 | 1.0 | 4.0 | 0.00 | 0.00 | 0.00 | 46 | 1013.9 |
| 20260830173607 | 75 | 273 | 1.0 | 4.0 | 0.00 | 0.00 | 0.00 | 45 | 1013.9 |
| 20260830173110 | 76 | 229 | 2.0 | 4.0 | 0.00 | 0.00 | 0.00 | 44 | 1013.9 |
| 20260830172607 | 76 | 231 | 1.0 | 5.0 | 0.00 | 0.00 | 0.00 | 44 | 1013.9 |
| 20260830172110 | 76 | 271 | 1.0 | 3.0 | 0.00 | 0.00 | 0.00 | 43 | 1013.9 |
| 20260830171607 | 76 | 225 | 1.0 | 4.0 | 0.00 | 0.00 | 0.00 | 42 | 1013.9 |
| 20260830171110 | 77 | 270 | 2.0 | 7.0 | 0.00 | 0.00 | 0.00 | 41 | 1013.9 |
| 20260830170608 | 77 | 249 | 2.0 | 7.0 | 0.00 | 0.00 | 0.00 | 41 | 1013.9 |
| 20260830170107 | 77 | 247 | 1.0 | 8.0 | 0.00 | 0.00 | 0.00 | 40 | 1013.5 |
| 20260830165608 | 78 | 258 | 3.0 | 6.0 | 0.00 | 0.00 | 0.00 | 39 | 1013.5 |
| 20260830165107 | 78 | 196 | 0.0 | 4.0 | 0.00 | 0.00 | 0.00 | 40 | 1013.5 |
| 20260830164607 | 78 | 245 | 0.0 | 3.0 | 0.00 | 0.00 | 0.00 | 39 | 1013.5 |
| 20260830164107 | 78 | 228 | 1.0 | 6.0 | 0.00 | 0.00 | 0.00 | 38 | 1013.5 |
| 20260830163613 | 78 | 213 | 1.0 | 5.0 | 0.00 | 0.00 | 0.00 | 37 | 1013.5 |
| 20260830163107 | 78 | 237 | 1.0 | 4.0 | 0.00 | 0.00 | 0.00 | 38 | 1013.9 |
| 20260830162607 | 78 | 217 | 0.0 | 4.0 | 0.00 | 0.00 | 0.00 | 38 | 1013.9 |
| 20260830162113 | 77 | 291 | 1.0 | 7.0 | 0.00 | 0.00 | 0.00 | 38 | 1013.5 |
| 20260830161607 | 78 | 236 | 4.0 | 9.0 | 0.00 | 0.00 | 0.00 | 37 | 1013.5 |
| 20260830161113 | 78 | 253 | 2.0 | 7.0 | 0.00 | 0.00 | 0.00 | 37 | 1013.5 |
| 20260830160607 | 78 | 227 | 0.0 | 6.0 | 0.00 | 0.00 | 0.00 | 38 | 1013.5 |
| 20260830160107 | 78 | 252 | 3.0 | 8.0 | 0.00 | 0.00 | 0.00 | 36 | 1013.9 |
| 20260830155613 | 78 | 222 | 2.0 | 9.0 | 0.00 | 0.00 | 0.00 | 36 | 1013.9 |
| 20260830155110 | 79 | 241 | 5.0 | 9.0 | 0.00 | 0.00 | 0.00 | 34 | 1013.9 |
| 20260830154610 | 80 | 257 | 2.0 | 8.0 | 0.00 | 0.00 | 0.00 | 35 | 1013.9 |
| 20260830154107 | 79 | 227 | 2.0 | 9.0 | 0.00 | 0.00 | 0.00 | 35 | 1013.9 |
| 20260830153613 | 79 | 259 | 3.0 | 10.0 | 0.00 | 0.00 | 0.00 | 35 | 1013.9 |
| 20260830153116 | 80 | 279 | 3.0 | 10.0 | 0.00 | 0.00 | 0.00 | 34 | 1013.9 |
| 20260830152607 | 80 | 255 | 3.0 | 9.0 | 0.00 | 0.00 | 0.00 | 35 | 1013.9 |
| 20260830152113 | 80 | 197 | 4.0 | 9.0 | 0.00 | 0.00 | 0.00 | 35 | 1013.9 |
| 20260830151607 | 79 | 225 | 4.0 | 10.0 | 0.00 | 0.00 | 0.00 | 35 | 1013.9 |
| 20260830151107 | 79 | 231 | 3.0 | 12.0 | 0.00 | 0.00 | 0.00 | 35 | 1013.9 |
| 20260830150607 | 80 | 248 | 3.0 | 10.0 | 0.00 | 0.00 | 0.00 | 35 | 1013.9 |
| 20260830150107 | 80 | 235 | 2.0 | 11.0 | 0.00 | 0.00 | 0.00 | 35 | 1013.9 |
| 20260830145607 | 80 | 264 | 5.0 | 8.0 | 0.00 | 0.00 | 0.00 | 35 | 1013.9 |
| 20260830145107 | 80 | 249 | 2.0 | 10.0 | 0.00 | 0.00 | 0.00 | 35 | 1013.9 |
| 20260830144607 | 80 | 235 | 5.0 | 11.0 | 0.00 | 0.00 | 0.00 | 34 | 1013.9 |
| 20260830144110 | 81 | 259 | 4.0 | 10.0 | 0.00 | 0.00 | 0.00 | 33 | 1013.9 |
| 20260830143610 | 81 | 215 | 2.0 | 10.0 | 0.00 | 0.00 | 0.00 | 33 | 1013.9 |
| 20260830143107 | 81 | 262 | 4.0 | 10.0 | 0.00 | 0.00 | 0.00 | 33 | 1013.9 |
| 20260830142607 | 81 | 251 | 3.0 | 9.0 | 0.00 | 0.00 | 0.00 | 32 | 1013.9 |
| 20260830142113 | 81 | 251 | 3.0 | 14.0 | 0.00 | 0.00 | 0.00 | 33 | 1013.9 |
| 20260830141607 | 81 | 210 | 3.0 | 11.0 | 0.00 | 0.00 | 0.00 | 33 | 1013.9 |
| 20260830141110 | 81 | 256 | 5.0 | 12.0 | 0.00 | 0.00 | 0.00 | 33 | 1013.9 |
| 20260830140610 | 81 | 208 | 1.0 | 12.0 | 0.00 | 0.00 | 0.00 | 33 | 1013.9 |
| 20260830140110 | 81 | 227 | 2.0 | 9.0 | 0.00 | 0.00 | 0.00 | 34 | 1013.9 |
| 20260830135607 | 80 | 229 | 3.0 | 12.0 | 0.00 | 0.00 | 0.00 | 34 | 1013.9 |
| 20260830135113 | 81 | 265 | 4.0 | 14.0 | 0.00 | 0.00 | 0.00 | 32 | 1013.9 |
| 20260830134613 | 83 | 260 | 4.0 | 13.0 | 0.00 | 0.00 | 0.00 | 33 | 1013.9 |
| 20260830134107 | 81 | 230 | 1.0 | 10.0 | 0.00 | 0.00 | 0.00 | 34 | 1013.9 |
| 20260830133616 | 82 | 231 | 3.0 | 13.0 | 0.00 | 0.00 | 0.00 | 34 | 1014.2 |
| 20260830133107 | 82 | 246 | 2.0 | 6.0 | 0.00 | 0.00 | 0.00 | 34 | 1014.2 |
| 20260830132610 | 82 | 196 | 2.0 | 7.0 | 0.00 | 0.00 | 0.00 | 35 | 1014.2 |
| 20260830132107 | 82 | 205 | 2.0 | 10.0 | 0.00 | 0.00 | 0.00 | 34 | 1014.2 |
| 20260830131610 | 81 | 216 | 2.0 | 11.0 | 0.00 | 0.00 | 0.00 | 35 | 1014.2 |
| 20260830131111 | 80 | 248 | 3.0 | 11.0 | 0.00 | 0.00 | 0.00 | 35 | 1014.2 |
| 20260830130607 | 80 | 251 | 2.0 | 9.0 | 0.00 | 0.00 | 0.00 | 36 | 1014.2 |
| 20260830130113 | 79 | 253 | 3.0 | 10.0 | 0.00 | 0.00 | 0.00 | 36 | 1014.2 |
| 20260830125613 | 81 | 266 | 3.0 | 8.0 | 0.00 | 0.00 | 0.00 | 34 | 1014.2 |
| 20260830125107 | 80 | 196 | 1.0 | 10.0 | 0.00 | 0.00 | 0.00 | 36 | 1014.2 |
| 20260830124610 | 79 | 231 | 5.0 | 13.0 | 0.00 | 0.00 | 0.00 | 36 | 1014.2 |
| 20260830124107 | 80 | 267 | 2.0 | 12.0 | 0.00 | 0.00 | 0.00 | 36 | 1014.2 |
| 20260830123610 | 80 | 242 | 5.0 | 13.0 | 0.00 | 0.00 | 0.00 | 35 | 1014.2 |
| 20260830123110 | 81 | 266 | 6.0 | 12.0 | 0.00 | 0.00 | 0.00 | 34 | 1014.2 |
| 20260830122607 | 80 | 241 | 4.0 | 12.0 | 0.00 | 0.00 | 0.00 | 35 | 1014.2 |
| 20260830122107 | 80 | 266 | 5.0 | 16.0 | 0.00 | 0.00 | 0.00 | 35 | 1014.2 |
| 20260830121610 | 81 | 212 | 3.0 | 10.0 | 0.00 | 0.00 | 0.00 | 35 | 1014.2 |
| 20260830121116 | 80 | 216 | 2.0 | 13.0 | 0.00 | 0.00 | 0.00 | 38 | 1014.2 |
| 20260830120616 | 80 | 232 | 5.0 | 13.0 | 0.00 | 0.00 | 0.00 | 36 | 1014.6 |
| 20260830120107 | 81 | 208 | 3.0 | 10.0 | 0.00 | 0.00 | 0.00 | 36 | 1014.2 |
| 20260830115610 | 80 | 269 | 3.0 | 12.0 | 0.00 | 0.00 | 0.00 | 38 | 1014.2 |
| 20260830115113 | 79 | 233 | 5.0 | 12.0 | 0.00 | 0.00 | 0.00 | 38 | 1014.2 |
| 20260830114607 | 78 | 176 | 2.0 | 13.0 | 0.00 | 0.00 | 0.00 | 39 | 1014.2 |
| 20260830114110 | 79 | 229 | 2.0 | 11.0 | 0.00 | 0.00 | 0.00 | 37 | 1014.2 |
| 20260830113610 | 79 | 243 | 4.0 | 10.0 | 0.00 | 0.00 | 0.00 | 38 | 1014.6 |
| 20260830113113 | 79 | 240 | 2.0 | 8.0 | 0.00 | 0.00 | 0.00 | 38 | 1014.6 |
| 20260830112607 | 78 | 225 | 2.0 | 11.0 | 0.00 | 0.00 | 0.00 | 38 | 1014.6 |
| 20260830112110 | 78 | 263 | 4.0 | 13.0 | 0.00 | 0.00 | 0.00 | 38 | 1014.6 |
| 20260830111610 | 79 | 281 | 2.0 | 10.0 | 0.00 | 0.00 | 0.00 | 38 | 1014.6 |
| 20260830111110 | 78 | 245 | 2.0 | 8.0 | 0.00 | 0.00 | 0.00 | 40 | 1014.6 |
| 20260830110607 | 77 | 240 | 3.0 | 11.0 | 0.00 | 0.00 | 0.00 | 41 | 1014.6 |
| 20260830110107 | 77 | 235 | 4.0 | 12.0 | 0.00 | 0.00 | 0.00 | 40 | 1014.6 |
| 20260830105610 | 78 | 249 | 5.0 | 12.0 | 0.00 | 0.00 | 0.00 | 38 | 1014.6 |
| 20260830105107 | 78 | 208 | 3.0 | 13.0 | 0.00 | 0.00 | 0.00 | 40 | 1014.6 |
| 20260830104610 | 78 | 283 | 4.0 | 10.0 | 0.00 | 0.00 | 0.00 | 42 | 1014.6 |
| 20260830104110 | 77 | 235 | 1.0 | 16.0 | 0.00 | 0.00 | 0.00 | 42 | 1014.6 |
| 20260830103613 | 76 | 248 | 4.0 | 13.0 | 0.00 | 0.00 | 0.00 | 42 | 1014.6 |